FLOCK 4S-31 (47475 NORAD) Tracking and Keplerian Element Data

This shows tracking and keplerian element data for the satellite.

Feedback or suggestion? Click here.




ElementValue
Catalog47475
NameFLOCK 4S-31
Epoch Orbit1198
Epoch Day101.91253025
Epoch Year2021
RAAN164.1762
Inclination97.4943
Eccentricity0.0007571
Argument of Perigee355.1258
Mean Anonmoly4.9898
Mean Motion15.11868956
Decay Rate2.336E-05
L11 47475U 21006BQ 21101.91253025 .00002336 00000-0 14026-3 0 9998
L22 47475 97.4943 164.1762 0007571 355.1258 4.9898 15.11868956 11988

Live tracking and technical data element details for FLOCK 4S-31 (NORAD 47475). FLOCK 4S-31 can be tracked NOW for your location showing map with azimuth and elevation plus other details from your city location.

Track the satellite on the map from your city or location and see movement details for azimuth, elevation, latitude, longitude, range, height, and movement on the map or in text.







IsCatalogInMostPopularTable: catalog: 47475, numindb: 13
Update: records affected: 1



GetName: 47475 FLOCK 4S-31

Hit Count: updated at: Tue, 13 Apr 2021 04:05:22 GMT